Find OneWeb SL0409

NORAD ID: 50488 Int'l Des: 2021-132 Owner: ONEWEBN Country: UK Constellation: oneweb operational
LEOCIRCULARPOLARONEWEB_TYPE

現在のビュー

3D地球を読み込み中...

About OneWeb SL0409

OneWeb SL0409 (NORAD 50488) is a oneweb constellation satellite launched Dec 27, 2021 by ONEWEBN of UK. It operates in LEO, CIRCULAR, POLAR, ONEWEB_TYPE orbit with a mass of 148.00 kg.

OneWeb SL0409について

説明を読み込み中...

次回通過

Passes for default location (London). Set your location on the main map for personalized predictions.

高度履歴

Loading altitude history...

軌道要素

1 50488U 21132V 26171.00018107 -.00000453 00000-0 -13144-2 0 9997
2 50488 87.8888 20.4957 0002097 85.8627 274.2740 13.11416948215951
Epoch: Jun 20, 2026 • Age: 28 hours

現在のステータス

高度 1227.0 km
速度 7.25 km/s
衛星直下点 61.77°N, 134.11°W
打ち上げ日 Dec 27, 2021
運用期間 4.4 years
タイプ internet

技術仕様

分類 Payload
質量 148.00 kg
乾燥質量 140.00 kg
総質量 148.00 kg
長さ 1.30 m
直径 1.00 m
スパン 5.00 m
形状 Trapezoid+2 pan
製造者 ONEWUS
バスタイプ ARROW
フェーズステータス In Orbit
所有者/国 ONEWEBN/UK

Most Searched